Regional Weather Roundup
Issued by NWS

Home | Current Version | Previous Version | Graphics & Text | Print | Product List | Glossary On
Versions: 1 2 3 4 5 6 7 8 9 10 11 12 13 14 15 16 17 18 19 20 21 22 23 24 25 26 27 28 29 30 31 32 33 34 35 36 37 38 39 40 41 42 43 44 45 46 47 48 49 50
000
ASUS43 KFSD 261302
RWRSD

WEATHER ROUNDUP FOR SOUTH DAKOTA
NATIONAL WEATHER SERVICE SIOUX FALLS SD
800 AM CDT WED JUL 26 2017

NOTE: "FAIR" INDICATES FEW OR NO CLOUDS BELOW 12,000 FEET WITH NO
SIGNIFICANT WEATHER AND/OR OBSTRUCTIONS TO VISIBILITY.


SDZ001>005-009-010-012>017-261400-
NORTHWEST AND NORTH CENTRAL SOUTH DAKOTA

CITY           SKY/WX    TMP DP  RH WIND       PRES   REMARKS
BUFFALO          N/A     67  55  65 CALM      30.10R
FAITH            N/A     70  55  59 N8        30.11R
MOBRIDGE       SUNNY     71  62  73 N5        30.05R
$$

SDZ012>016-024>037-041>051-057-063-072>074-261400-
SOUTHWEST AND SOUTH CENTRAL SOUTH DAKOTA

CITY           SKY/WX    TMP DP  RH WIND       PRES   REMARKS
RAPID CTY ARPT CLOUDY    71  48  43 NW8       30.14R
PIERRE         CLOUDY    71  67  87 NE10      30.02R
CUSTER         CLOUDY    63  43  48 NE7       30.26R
ELLSWORTH AFB  CLOUDY    69  53  57 NW6       30.14R
PHILIP         CLOUDY    72  64  76 N8        30.08R
PINE RIDGE     CLOUDY    70  60  70 N3        30.12R
SPEARFISH      FAIR      66  55  68 N3        30.19R
WINNER         PTSUNNY   72  68  87 NE3       30.03F
$$

SDZ004>011-016>023-039-040-261400-
NORTHEAST SOUTH DAKOTA

CITY           SKY/WX    TMP DP  RH WIND       PRES   REMARKS
ABERDEEN       CLOUDY    70  63  78 NE8       30.05R
WATERTOWN      CLOUDY    68  64  87 N8        30.04R
BROOKINGS      CLOUDY    71  68  90 E10       30.03S
SISSETON         N/A     69  65  86 NW3       30.02S
$$

SDZ017-020-022-023-036>040-048>070-261400-
SOUTHEAST SOUTH DAKOTA

CITY           SKY/WX    TMP DP  RH WIND       PRES   REMARKS
SIOUX FALLS    CLOUDY    73  71  93 NE5       30.01S
HURON          CLOUDY    73  70  90 NE9       30.01R
CHAMBERLAIN    CLOUDY    72  71  97 E6        30.02R
MITCHELL       MOSUNNY   72  70  93 SE8       29.99S
YANKTON        CLOUDY    72  71  97 E5        30.00R
$$

ABBREVIATIONS USED IN REMARKS
   TC - TEMPERATURE IN CELSIUS
  WCI - WIND CHILL INDEX
   HX - HEAT INDEX
  VSB - VISIBILITY




USA.gov is the U.S. government's official web portal to all federal, state and local government web resources and services.